Time,TemperatureF,DewpointF,PressureIn,WindDirection,WindDirectionDegrees,WindSpeedMPH,WindSpeedGustMPH,Humidity,HourlyPrecipIn,Conditions,Clouds,dailyrainin,SolarRadiationWatts/m^2,SoftwareType,DateUTC
2013-01-23 00:00:00,1.9,-4.2,30.03,NW,316,0.0,11.0,75,0.00,,---,0.01,0.00,VWS V14.00,2013-01-23 05:00:00,
2013-01-23 00:01:00,1.9,-4.2,30.03,WNW,298,5.0,11.0,75,0.00,,---,0.01,0.00,VWS V14.00,2013-01-23 05:01:00,
2013-01-23 00:06:00,1.8,-4.6,30.03,NW,310,5.0,11.0,74,0.00,,---,0.01,0.00,VWS V14.00,2013-01-23 05:06:00,
2013-01-23 00:11:00,1.8,-4.6,30.03,NW,317,0.0,11.0,74,0.00,,---,0.01,0.00,VWS V14.00,2013-01-23 05:11:00,
2013-01-23 00:17:00,1.7,-4.7,30.02,NW,304,4.0,7.0,74,0.00,,---,0.01,0.00,VWS V14.00,2013-01-23 05:17:00,
2013-01-23 00:22:00,1.6,-5.0,30.02,West,274,0.0,8.0,73,0.00,,---,0.01,0.00,VWS V14.00,2013-01-23 05:22:00,
2013-01-23 00:27:00,1.5,-5.4,30.02,WSW,242,3.0,8.0,72,0.00,,---,0.01,0.00,VWS V14.00,2013-01-23 05:27:00,
2013-01-23 00:30:00,8.2,4.6,29.78,WNW,302,0.0,2.0,85,0.00,,---,0.00,0.00,VWS V14.00,2013-01-23 05:30:00,
2013-01-23 00:32:00,1.4,-5.8,30.02,WNW,284,1.0,8.0,71,0.00,,---,0.01,0.00,VWS V14.00,2013-01-23 05:32:00,
2013-01-23 00:37:00,1.4,-6.1,30.02,WNW,295,2.0,8.0,70,0.00,,---,0.01,0.00,VWS V14.00,2013-01-23 05:37:00,
2013-01-23 00:42:00,1.4,-6.7,30.02,WNW,285,2.0,14.0,68,0.00,,---,0.01,0.00,VWS V14.00,2013-01-23 05:42:00,
2013-01-23 00:47:00,1.4,-7.0,30.03,WSW,257,0.0,5.0,67,0.00,,---,0.01,0.00,VWS V14.00,2013-01-23 05:47:00,
2013-01-23 00:52:00,1.4,-7.6,30.02,NNW,327,6.0,13.0,65,0.00,,---,0.01,0.00,VWS V14.00,2013-01-23 05:52:00,
2013-01-23 00:57:00,1.5,-8.2,30.02,West,275,0.0,13.0,63,0.00,,---,0.01,0.00,VWS V14.00,2013-01-23 05:57:00,
2013-01-23 01:00:00,8.2,4.6,29.78,WNW,302,1.0,1.0,85,0.00,,---,0.00,0.00,VWS V14.00,2013-01-23 06:00:00,
2013-01-23 01:02:00,1.4,-7.9,30.02,WNW,298,4.0,13.0,64,0.00,,---,0.01,0.00,VWS V14.00,2013-01-23 06:02:00,
2013-01-23 01:07:00,1.1,-7.3,30.03,WNW,286,4.0,15.0,67,0.00,,---,0.01,0.00,VWS V14.00,2013-01-23 06:07:00,
2013-01-23 01:12:00,0.8,-7.0,30.03,NNW,333,2.0,15.0,69,0.00,,---,0.01,0.00,VWS V14.00,2013-01-23 06:12:00,
2013-01-23 01:17:00,0.6,-6.9,30.03,WNW,290,7.0,10.0,70,0.00,,---,0.01,0.00,VWS V14.00,2013-01-23 06:17:00,
2013-01-23 01:22:00,0.1,-6.8,30.03,NNW,329,3.0,10.0,72,0.00,,---,0.01,0.00,VWS V14.00,2013-01-23 06:22:00,
2013-01-23 01:27:00,0.1,-6.6,30.03,West,281,5.0,10.0,73,0.00,,---,0.01,0.00,VWS V14.00,2013-01-23 06:27:00,
2013-01-23 01:30:00,7.4,3.6,29.79,NW,318,1.0,6.0,84,0.00,,---,0.00,0.00,VWS V14.00,2013-01-23 06:30:00,
2013-01-23 01:32:00,-0.3,-6.6,30.04,NW,315,6.0,10.0,74,0.00,,---,0.01,0.00,VWS V14.00,2013-01-23 06:32:00,
2013-01-23 01:37:00,-0.6,-6.6,30.04,WNW,294,5.0,13.0,75,0.00,,---,0.01,0.00,VWS V14.00,2013-01-23 06:37:00,
2013-01-23 01:42:00,-1.0,-6.7,30.04,NW,308,3.0,13.0,76,0.00,,---,0.01,0.00,VWS V14.00,2013-01-23 06:42:00,
2013-01-23 01:47:00,-1.2,-6.4,30.04,WNW,295,4.0,6.0,78,0.00,,---,0.01,0.00,VWS V14.00,2013-01-23 06:47:00,
2013-01-23 01:53:00,-1.4,-6.6,30.05,West,272,4.0,10.0,78,0.00,,---,0.01,0.00,VWS V14.00,2013-01-23 06:53:00,
2013-01-23 01:58:00,-1.6,-6.8,30.05,NNW,338,7.0,10.0,78,0.00,,---,0.01,0.00,VWS V14.00,2013-01-23 06:58:00,
2013-01-23 02:00:00,6.8,3.0,29.79,NW,306,0.0,5.0,84,0.00,,---,0.00,0.00,VWS V14.00,2013-01-23 07:00:00,
2013-01-23 02:03:00,-1.7,-6.6,30.05,WNW,302,6.0,10.0,79,0.00,,---,0.01,0.00,VWS V14.00,2013-01-23 07:03:00,
2013-01-23 02:08:00,-1.8,-6.7,30.05,NW,310,1.0,10.0,79,0.00,,---,0.01,0.00,VWS V14.00,2013-01-23 07:08:00,
2013-01-23 02:13:00,-1.9,-6.8,30.05,NNW,332,5.0,10.0,79,0.00,,---,0.01,0.00,VWS V14.00,2013-01-23 07:13:00,
2013-01-23 02:18:00,-2.0,-6.9,30.05,West,277,3.0,7.0,79,0.00,,---,0.00,0.00,VWS V14.00,2013-01-23 07:18:00,
2013-01-23 02:23:00,-2.1,-7.0,30.05,NW,304,5.0,9.0,79,0.00,,---,0.00,0.00,VWS V14.00,2013-01-23 07:23:00,
2013-01-23 02:28:00,-2.3,-7.2,30.06,West,281,7.0,10.0,79,0.00,,---,0.00,0.00,VWS V14.00,2013-01-23 07:28:00,
2013-01-23 02:30:00,6.7,3.2,29.81,NW,306,0.0,4.0,85,0.00,,---,0.00,0.00,VWS V14.00,2013-01-23 07:30:00,
2013-01-23 02:33:00,-2.5,-7.4,30.06,WNW,297,8.0,10.0,79,0.00,,---,0.00,0.00,VWS V14.00,2013-01-23 07:33:00,
2013-01-23 02:38:00,-2.5,-7.4,30.06,NW,316,3.0,10.0,79,0.00,,---,0.00,0.00,VWS V14.00,2013-01-23 07:38:00,
2013-01-23 02:43:00,-2.7,-7.6,30.06,WNW,294,1.0,10.0,79,0.00,,---,0.00,0.00,VWS V14.00,2013-01-23 07:43:00,
2013-01-23 02:48:00,-2.8,-7.7,30.06,WNW,296,6.0,9.0,79,0.00,,---,0.00,0.00,VWS V14.00,2013-01-23 07:48:00,
2013-01-23 02:53:00,-3.0,-8.1,30.06,WNW,282,5.0,11.0,78,0.00,,---,0.00,0.00,VWS V14.00,2013-01-23 07:53:00,
2013-01-23 02:58:00,-3.2,-8.3,30.06,WSW,244,2.0,11.0,78,0.00,,---,0.00,0.00,VWS V14.00,2013-01-23 07:58:00,
2013-01-23 03:00:00,6.6,3.1,29.81,NW,306,0.0,0.0,85,0.01,,---,0.01,0.00,VWS V14.00,2013-01-23 08:00:00,
2013-01-23 03:03:00,-3.3,-8.4,30.06,WNW,302,6.0,11.0,78,0.00,,---,0.00,0.00,VWS V14.00,2013-01-23 08:03:00,
2013-01-23 03:08:00,-3.5,-8.6,30.06,WNW,302,6.0,12.0,78,0.00,,---,0.00,0.00,VWS V14.00,2013-01-23 08:08:00,
2013-01-23 03:13:00,-3.7,-9.1,30.06,NW,306,1.0,12.0,77,0.00,,---,0.00,0.00,VWS V14.00,2013-01-23 08:13:00,
2013-01-23 03:18:00,-3.9,-9.3,30.06,NNW,328,3.0,8.0,77,0.00,,---,0.00,0.00,VWS V14.00,2013-01-23 08:18:00,
2013-01-23 03:23:00,-3.9,-9.3,30.06,WNW,296,1.0,8.0,77,0.00,,---,0.00,0.00,VWS V14.00,2013-01-23 08:23:00,
2013-01-23 03:28:00,-4.1,-9.5,30.06,NW,304,4.0,8.0,77,0.00,,---,0.00,0.00,VWS V14.00,2013-01-23 08:28:00,
2013-01-23 03:30:00,5.5,1.7,29.81,NW,306,0.0,0.0,84,0.01,,---,0.01,0.00,VWS V14.00,2013-01-23 08:30:00,
2013-01-23 03:34:00,-4.2,-9.6,30.06,NW,313,1.0,8.0,77,0.00,,---,0.00,0.00,VWS V14.00,2013-01-23 08:34:00,
2013-01-23 03:39:00,-4.3,-9.7,30.06,NW,313,0.0,8.0,77,0.00,,---,0.00,0.00,VWS V14.00,2013-01-23 08:39:00,
2013-01-23 03:44:00,-4.3,-9.7,30.06,WNW,284,0.0,8.0,77,0.00,,---,0.00,0.00,VWS V14.00,2013-01-23 08:44:00,
2013-01-23 03:49:00,-4.5,-9.9,30.06,NNW,327,2.0,4.0,77,0.00,,---,0.00,0.00,VWS V14.00,2013-01-23 08:49:00,
2013-01-23 03:54:00,-4.9,-10.2,30.06,NW,308,0.0,5.0,77,0.00,,---,0.00,0.00,VWS V14.00,2013-01-23 08:54:00,
2013-01-23 03:59:00,-5.2,-10.5,30.06,NNW,331,2.0,5.0,77,0.00,,---,0.00,0.00,VWS V14.00,2013-01-23 08:59:00,
2013-01-23 04:00:00,4.2,0.2,29.82,NW,306,0.0,0.0,83,0.01,,---,0.01,0.00,VWS V14.00,2013-01-23 09:00:00,
2013-01-23 04:04:00,-5.4,-11.0,30.06,NNW,341,3.0,6.0,76,0.00,,---,0.00,0.00,VWS V14.00,2013-01-23 09:04:00,
2013-01-23 04:09:00,-5.7,-11.3,30.07,NNW,330,3.0,7.0,76,0.00,,---,0.00,0.00,VWS V14.00,2013-01-23 09:09:00,
2013-01-23 04:14:00,-5.9,-11.5,30.07,WNW,296,4.0,8.0,76,0.00,,---,0.00,0.00,VWS V14.00,2013-01-23 09:14:00,
2013-01-23 04:19:00,-6.2,-11.8,30.06,WNW,295,5.0,9.0,76,0.00,,---,0.00,0.00,VWS V14.00,2013-01-23 09:19:00,
2013-01-23 04:24:00,-6.3,-11.9,30.06,WNW,300,4.0,9.0,76,0.00,,---,0.00,0.00,VWS V14.00,2013-01-23 09:24:00,
2013-01-23 04:29:00,-6.4,-12.0,30.07,NW,310,4.0,9.0,76,0.00,,---,0.00,0.00,VWS V14.00,2013-01-23 09:29:00,
2013-01-23 04:30:00,2.6,-1.4,29.84,NW,312,0.0,2.0,83,0.00,,---,0.01,0.00,VWS V14.00,2013-01-23 09:30:00,
2013-01-23 04:34:00,-6.6,-12.2,30.07,NW,311,4.0,9.0,76,0.00,,---,0.00,0.00,VWS V14.00,2013-01-23 09:34:00,
2013-01-23 04:39:00,-6.7,-12.3,30.07,WNW,296,3.0,9.0,76,0.00,,---,0.00,0.00,VWS V14.00,2013-01-23 09:39:00,
2013-01-23 04:44:00,-6.8,-12.4,30.07,WNW,302,4.0,9.0,76,0.00,,---,0.00,0.00,VWS V14.00,2013-01-23 09:44:00,
2013-01-23 04:49:00,-6.9,-12.5,30.07,WNW,299,5.0,5.0,76,0.00,,---,0.00,0.00,VWS V14.00,2013-01-23 09:49:00,
2013-01-23 04:54:00,-7.0,-12.6,30.07,WNW,302,3.0,6.0,76,0.00,,---,0.00,0.00,VWS V14.00,2013-01-23 09:54:00,
2013-01-23 04:59:00,-7.1,-12.6,30.07,WNW,288,2.0,6.0,76,0.00,,---,0.00,0.00,VWS V14.00,2013-01-23 09:59:00,
2013-01-23 05:00:00,2.0,-2.0,29.84,ENE,61,0.0,3.0,83,0.00,,---,0.01,0.00,VWS V14.00,2013-01-23 10:00:00,
2013-01-23 05:04:00,-7.3,-12.9,30.08,WNW,300,5.0,6.0,76,0.00,,---,0.00,0.00,VWS V14.00,2013-01-23 10:04:00,
2013-01-23 05:09:00,-7.4,-12.9,30.08,NW,304,7.0,7.0,76,0.00,,---,0.00,0.00,VWS V14.00,2013-01-23 10:09:00,
2013-01-23 05:14:00,-7.5,-13.0,30.08,NNW,331,5.0,11.0,76,0.00,,---,0.00,0.00,VWS V14.00,2013-01-23 10:14:00,
2013-01-23 05:19:00,-7.5,-13.0,30.08,WNW,303,7.0,8.0,76,0.00,,---,0.00,0.00,VWS V14.00,2013-01-23 10:19:00,
2013-01-23 05:24:00,-7.6,-13.1,30.08,NW,308,7.0,8.0,76,0.00,,---,0.00,0.00,VWS V14.00,2013-01-23 10:24:00,
2013-01-23 05:29:00,-7.7,-13.2,30.08,NW,313,2.0,8.0,76,0.00,,---,0.00,0.00,VWS V14.00,2013-01-23 10:29:00,
2013-01-23 05:30:00,0.8,-3.4,29.85,ENE,61,0.0,0.0,82,0.00,,---,0.01,19.00,VWS V14.00,2013-01-23 10:30:00,
2013-01-23 05:34:00,-7.7,-13.2,30.08,WNW,302,5.0,9.0,76,0.00,,---,0.00,0.00,VWS V14.00,2013-01-23 10:34:00,
2013-01-23 05:39:00,-7.9,-13.4,30.08,West,268,4.0,9.0,76,0.00,,---,0.00,0.00,VWS V14.00,2013-01-23 10:39:00,
2013-01-23 05:44:00,-7.9,-13.4,30.09,WNW,288,5.0,9.0,76,0.00,,---,0.00,0.00,VWS V14.00,2013-01-23 10:44:00,
2013-01-23 05:49:00,-8.0,-13.5,30.09,NW,304,3.0,3.0,76,0.00,,---,0.00,0.00,VWS V14.00,2013-01-23 10:49:00,
2013-01-23 05:54:00,-8.1,-13.6,30.09,NW,306,0.0,3.0,76,0.00,,---,0.00,0.00,VWS V14.00,2013-01-23 10:54:00,
2013-01-23 05:59:00,-8.2,-13.7,30.09,NW,309,0.0,6.0,76,0.00,,---,0.00,0.00,VWS V14.00,2013-01-23 10:59:00,
2013-01-23 06:00:00,1.6,-2.4,29.85,ENE,61,0.0,0.0,83,0.00,,---,0.01,33.00,VWS V14.00,2013-01-23 11:00:00,
2013-01-23 06:04:00,-8.4,-13.9,30.09,NW,309,1.0,6.0,76,0.00,,---,0.00,0.00,VWS V14.00,2013-01-23 11:04:00,
2013-01-23 06:09:00,-8.4,-13.9,30.09,NW,306,0.0,6.0,76,0.00,,---,0.00,0.00,VWS V14.00,2013-01-23 11:09:00,
2013-01-23 06:14:00,-8.5,-14.0,30.09,NW,306,0.0,6.0,76,0.00,,---,0.00,0.00,VWS V14.00,2013-01-23 11:14:00,
2013-01-23 06:19:00,-8.6,-14.1,30.09,NW,305,1.0,3.0,76,0.00,,---,0.00,0.00,VWS V14.00,2013-01-23 11:19:00,
2013-01-23 06:24:00,-8.8,-14.3,30.09,WNW,293,1.0,5.0,76,0.00,,---,0.00,0.00,VWS V14.00,2013-01-23 11:24:00,
2013-01-23 06:29:00,-8.9,-14.4,30.10,WNW,295,0.0,5.0,76,0.00,,---,0.00,0.00,VWS V14.00,2013-01-23 11:29:00,
2013-01-23 06:30:00,2.7,-1.0,29.86,ENE,61,0.0,0.0,84,0.00,,---,0.01,32.00,VWS V14.00,2013-01-23 11:30:00,
2013-01-23 06:34:00,-9.0,-14.5,30.10,WNW,295,0.0,5.0,76,0.00,,---,0.00,0.00,VWS V14.00,2013-01-23 11:34:00,
2013-01-23 06:39:00,-9.1,-14.6,30.10,WNW,295,0.0,5.0,76,0.00,,---,0.00,0.00,VWS V14.00,2013-01-23 11:39:00,
2013-01-23 06:44:00,-9.2,-14.7,30.10,WNW,295,0.0,5.0,76,0.00,,---,0.00,0.00,VWS V14.00,2013-01-23 11:44:00,
2013-01-23 06:49:00,-9.5,-14.7,30.10,WNW,295,0.0,0.0,77,0.00,,---,0.00,0.00,VWS V14.00,2013-01-23 11:49:00,
2013-01-23 06:54:00,-9.7,-15.2,30.10,WNW,295,0.0,0.0,76,0.00,,---,0.00,0.00,VWS V14.00,2013-01-23 11:54:00,
2013-01-23 06:59:00,-9.9,-15.4,30.10,WNW,301,4.0,6.0,76,0.00,,---,0.00,0.00,VWS V14.00,2013-01-23 11:59:00,
2013-01-23 07:00:00,4.5,0.7,29.86,SSE,157,0.0,1.0,84,0.00,,---,0.01,49.00,VWS V14.00,2013-01-23 12:00:00,
2013-01-23 07:04:00,-9.9,-15.1,30.11,WNW,294,4.0,8.0,77,0.00,,---,0.00,0.00,VWS V14.00,2013-01-23 12:04:00,
2013-01-23 07:09:00,-9.7,-14.9,30.11,WNW,288,3.0,8.0,77,0.00,,---,0.00,0.00,VWS V14.00,2013-01-23 12:09:00,
2013-01-23 07:14:00,-9.7,-14.9,30.11,WNW,300,3.0,8.0,77,0.00,,---,0.00,0.00,VWS V14.00,2013-01-23 12:14:00,
2013-01-23 07:19:00,-9.8,-15.0,30.11,NW,313,2.0,4.0,77,0.00,,---,0.00,5.00,VWS V14.00,2013-01-23 12:19:00,
2013-01-23 07:24:00,-9.8,-15.0,30.11,WNW,293,1.0,5.0,77,0.00,,---,0.00,7.00,VWS V14.00,2013-01-23 12:24:00,
2013-01-23 07:30:00,-9.9,-15.1,30.11,WNW,297,0.0,5.0,77,0.00,,---,0.00,9.00,VWS V14.00,2013-01-23 12:30:00,
2013-01-23 07:35:00,-10.0,-15.2,30.12,WNW,297,2.0,5.0,77,0.00,,---,0.00,12.00,VWS V14.00,2013-01-23 12:35:00,
2013-01-23 07:40:00,-10.2,-15.4,30.12,WNW,300,0.0,5.0,77,0.00,,---,0.00,14.00,VWS V14.00,2013-01-23 12:40:00,
2013-01-23 07:45:00,-10.2,-15.4,30.12,West,275,4.0,5.0,77,0.00,,---,0.00,16.00,VWS V14.00,2013-01-23 12:45:00,
2013-01-23 07:50:00,-10.3,-15.5,30.12,WNW,301,1.0,4.0,77,0.00,,---,0.00,21.00,VWS V14.00,2013-01-23 12:50:00,
2013-01-23 07:55:00,-10.3,-15.5,30.12,WNW,303,1.0,4.0,77,0.00,,---,0.00,23.00,VWS V14.00,2013-01-23 12:55:00,
2013-01-23 08:00:00,-10.3,-15.5,30.12,WNW,303,0.0,4.0,77,0.00,,---,0.00,30.00,VWS V14.00,2013-01-23 13:00:00,
2013-01-23 08:05:00,-10.3,-15.5,30.12,WNW,303,2.0,4.0,77,0.00,,---,0.00,42.00,VWS V14.00,2013-01-23 13:05:00,
2013-01-23 08:10:00,-10.2,-15.2,30.12,WNW,303,2.0,4.0,78,0.00,,---,0.00,46.00,VWS V14.00,2013-01-23 13:10:00,
2013-01-23 08:15:00,-10.0,-15.0,30.12,WNW,298,1.0,4.0,78,0.00,,---,0.00,47.00,VWS V14.00,2013-01-23 13:15:00,
2013-01-23 08:20:00,-9.9,-14.9,30.13,WNW,298,0.0,2.0,78,0.00,,---,0.00,51.00,VWS V14.00,2013-01-23 13:20:00,
2013-01-23 08:25:00,-9.7,-14.7,30.13,SW,234,3.0,4.0,78,0.00,,---,0.00,54.00,VWS V14.00,2013-01-23 13:25:00,
2013-01-23 08:30:00,-9.6,-14.6,30.13,WNW,299,2.0,6.0,78,0.00,,---,0.00,62.00,VWS V14.00,2013-01-23 13:30:00,
2013-01-23 08:35:00,-9.5,-14.7,30.13,West,281,0.0,6.0,77,0.00,,---,0.00,69.00,VWS V14.00,2013-01-23 13:35:00,
2013-01-23 08:40:00,-9.3,-14.5,30.13,NW,314,0.0,6.0,77,0.00,,---,0.00,69.00,VWS V14.00,2013-01-23 13:40:00,
2013-01-23 08:45:00,-9.2,-14.4,30.13,NNW,327,3.0,9.0,77,0.00,,---,0.00,60.00,VWS V14.00,2013-01-23 13:45:00,
2013-01-23 08:50:00,-9.2,-14.4,30.14,West,275,0.0,4.0,77,0.00,,---,0.00,90.00,VWS V14.00,2013-01-23 13:50:00,
2013-01-23 08:55:00,-9.0,-14.2,30.14,NNE,19,4.0,5.0,77,0.00,,---,0.00,70.00,VWS V14.00,2013-01-23 13:55:00,
2013-01-23 09:00:00,-8.9,-14.4,30.14,NNE,26,3.0,5.0,76,0.00,,---,0.00,65.00,VWS V14.00,2013-01-23 14:00:00,
2013-01-23 09:05:00,-8.8,-14.3,30.14,NNE,19,3.0,5.0,76,0.00,,---,0.00,58.00,VWS V14.00,2013-01-23 14:05:00,
2013-01-23 09:11:00,-8.7,-14.2,30.14,NNW,333,0.0,5.0,76,0.00,,---,0.00,62.00,VWS V14.00,2013-01-23 14:11:00,
2013-01-23 09:16:00,-8.5,-14.0,30.14,NW,308,3.0,4.0,76,0.00,,---,0.00,53.00,VWS V14.00,2013-01-23 14:16:00,
2013-01-23 09:21:00,-8.4,-14.2,30.14,WNW,290,7.0,7.0,75,0.00,,---,0.00,56.00,VWS V14.00,2013-01-23 14:21:00,
2013-01-23 09:26:00,-8.2,-14.0,30.14,WNW,294,6.0,7.0,75,0.00,,---,0.00,132.00,VWS V14.00,2013-01-23 14:26:00,
2013-01-23 09:30:00,11.1,4.4,29.86,NW,319,0.0,11.0,74,0.00,,---,0.01,220.00,VWS V14.00,2013-01-23 14:30:00,
2013-01-23 09:31:00,-8.0,-13.8,30.14,NW,310,3.0,7.0,75,0.00,,---,0.00,42.00,VWS V14.00,2013-01-23 14:31:00,
2013-01-23 09:36:00,-7.8,-13.9,30.14,NNW,336,0.0,8.0,74,0.00,,---,0.00,63.00,VWS V14.00,2013-01-23 14:36:00,
2013-01-23 09:41:00,-7.4,-13.8,30.14,NNW,327,3.0,8.0,73,0.00,,---,0.00,141.00,VWS V14.00,2013-01-23 14:41:00,
2013-01-23 09:46:00,-7.2,-13.8,30.14,NNW,338,1.0,2.0,72,0.00,,---,0.00,137.00,VWS V14.00,2013-01-23 14:46:00,
2013-01-23 09:51:00,-6.7,-13.3,30.14,NNE,13,1.0,5.0,72,0.00,,---,0.00,42.00,VWS V14.00,2013-01-23 14:51:00,
2013-01-23 09:56:00,-6.4,-13.3,30.15,NNE,29,3.0,6.0,71,0.00,,---,0.00,39.00,VWS V14.00,2013-01-23 14:56:00,
2013-01-23 10:00:00,11.8,4.5,29.86,NNW,329,6.0,14.0,72,0.00,,---,0.01,144.00,VWS V14.00,2013-01-23 15:00:00,
2013-01-23 10:01:00,-6.1,-13.6,30.15,North,355,2.0,9.0,69,0.00,,---,0.00,39.00,VWS V14.00,2013-01-23 15:01:00,
2013-01-23 10:06:00,-5.8,-13.6,30.15,WNW,283,7.0,9.0,68,0.00,,---,0.00,39.00,VWS V14.00,2013-01-23 15:06:00,
2013-01-23 10:12:00,-5.8,-14.2,30.15,WNW,283,1.0,12.0,66,0.00,,---,0.00,56.00,VWS V14.00,2013-01-23 15:12:00,
2013-01-23 10:17:00,-5.8,-14.8,30.15,West,270,6.0,10.0,64,0.00,,---,0.00,65.00,VWS V14.00,2013-01-23 15:17:00,
2013-01-23 10:22:00,-5.4,-14.1,30.15,NW,323,6.0,10.0,65,0.00,,---,0.00,44.00,VWS V14.00,2013-01-23 15:22:00,
2013-01-23 10:27:00,-5.2,-14.6,30.15,WNW,292,5.0,10.0,63,0.00,,---,0.00,130.00,VWS V14.00,2013-01-23 15:27:00,
2013-01-23 10:30:00,13.0,5.4,29.85,SW,235,0.0,16.0,71,0.00,,---,0.01,246.00,VWS V14.00,2013-01-23 15:30:00,
2013-01-23 10:32:00,-4.8,-14.2,30.15,West,281,6.0,10.0,63,0.00,,---,0.00,47.00,VWS V14.00,2013-01-23 15:32:00,
2013-01-23 10:37:00,-4.5,-14.2,30.15,WSW,253,2.0,10.0,62,0.00,,---,0.00,91.00,VWS V14.00,2013-01-23 15:37:00,
2013-01-23 10:42:00,-4.4,-14.8,30.15,NW,319,3.0,10.0,60,0.00,,---,0.00,209.00,VWS V14.00,2013-01-23 15:42:00,
2013-01-23 10:47:00,-4.3,-15.0,30.14,NW,304,5.0,8.0,59,0.00,,---,0.00,53.00,VWS V14.00,2013-01-23 15:47:00,
2013-01-23 10:52:00,-4.1,-14.8,30.15,NE,34,0.0,8.0,59,0.00,,---,0.00,42.00,VWS V14.00,2013-01-23 15:52:00,
2013-01-23 10:57:00,-3.9,-14.6,30.14,NW,309,4.0,10.0,59,0.00,,---,0.00,49.00,VWS V14.00,2013-01-23 15:57:00,
2013-01-23 11:00:00,14.7,5.8,29.85,WSW,248,2.0,14.0,67,0.00,,---,0.01,297.00,VWS V14.00,2013-01-23 16:00:00,
2013-01-23 11:02:00,-3.8,-14.5,30.14,NW,304,3.0,10.0,59,0.00,,---,0.00,63.00,VWS V14.00,2013-01-23 16:02:00,
2013-01-23 11:07:00,-3.5,-14.2,30.14,NW,305,5.0,11.0,59,0.00,,---,0.00,258.00,VWS V14.00,2013-01-23 16:07:00,
2013-01-23 11:12:00,-3.2,-13.9,30.14,NW,315,1.0,11.0,59,0.00,,---,0.00,272.00,VWS V14.00,2013-01-23 16:12:00,
2013-01-23 11:17:00,-3.3,-14.0,30.14,WNW,290,2.0,5.0,59,0.00,,---,0.00,151.00,VWS V14.00,2013-01-23 16:17:00,
2013-01-23 11:22:00,-3.1,-14.2,30.14,WNW,296,1.0,8.0,58,0.00,,---,0.00,243.00,VWS V14.00,2013-01-23 16:22:00,
2013-01-23 11:27:00,-2.9,-14.3,30.14,WSW,252,2.0,8.0,57,0.00,,---,0.00,439.00,VWS V14.00,2013-01-23 16:27:00,
2013-01-23 11:30:00,14.9,4.2,29.86,WNW,294,3.0,9.0,62,0.00,,---,0.01,172.00,VWS V14.00,2013-01-23 16:30:00,
2013-01-23 11:32:00,-2.8,-14.2,30.14,NW,313,2.0,8.0,57,0.00,,---,0.00,443.00,VWS V14.00,2013-01-23 16:32:00,
2013-01-23 11:38:00,-3.0,-14.8,30.14,NW,325,6.0,13.0,56,0.00,,---,0.00,448.00,VWS V14.00,2013-01-23 16:38:00,
2013-01-23 11:43:00,-3.1,-14.9,30.14,WNW,296,0.0,13.0,56,0.00,,---,0.00,452.00,VWS V14.00,2013-01-23 16:43:00,
2013-01-23 11:48:00,-2.7,-14.1,30.14,West,260,0.0,4.0,57,0.00,,---,0.00,452.00,VWS V14.00,2013-01-23 16:48:00,
2013-01-23 11:53:00,-2.7,-14.5,30.13,WSW,242,1.0,4.0,56,0.00,,---,0.00,455.00,VWS V14.00,2013-01-23 16:53:00,
2013-01-23 11:58:00,-2.5,-14.7,30.13,WNW,289,4.0,4.0,55,0.00,,---,0.00,457.00,VWS V14.00,2013-01-23 16:58:00,
2013-01-23 12:00:00,13.3,2.0,29.86,NW,304,3.0,9.0,60,0.00,,---,0.01,149.00,VWS V14.00,2013-01-23 17:00:00,
2013-01-23 12:03:00,-2.7,-14.9,30.13,NW,306,2.0,8.0,55,0.00,,---,0.00,457.00,VWS V14.00,2013-01-23 17:03:00,
2013-01-23 12:08:00,-2.5,-14.3,30.13,South,187,1.0,8.0,56,0.00,,---,0.00,459.00,VWS V14.00,2013-01-23 17:08:00,
2013-01-23 12:13:00,-2.5,-14.7,30.13,NW,326,1.0,8.0,55,0.00,,---,0.00,459.00,VWS V14.00,2013-01-23 17:13:00,
2013-01-23 12:19:00,-2.0,-13.8,30.13,WSW,246,2.0,5.0,56,0.00,,---,0.00,459.00,VWS V14.00,2013-01-23 17:19:00,
2013-01-23 12:24:00,-1.8,-13.7,30.13,WSW,250,1.0,6.0,56,0.00,,---,0.00,457.00,VWS V14.00,2013-01-23 17:24:00,
2013-01-23 12:29:00,-1.9,-14.1,30.13,NW,306,4.0,7.0,55,0.00,,---,0.00,457.00,VWS V14.00,2013-01-23 17:29:00,
2013-01-23 12:30:00,13.5,4.9,29.88,NNW,327,5.0,10.0,68,0.00,,---,0.01,93.00,VWS V14.00,2013-01-23 17:30:00,
2013-01-23 12:34:00,-2.3,-14.5,30.12,WNW,286,6.0,9.0,55,0.00,,---,0.00,459.00,VWS V14.00,2013-01-23 17:34:00,
2013-01-23 12:39:00,-1.9,-13.8,30.12,WSW,248,2.0,9.0,56,0.00,,---,0.00,454.00,VWS V14.00,2013-01-23 17:39:00,
2013-01-23 12:44:00,-1.6,-13.1,30.12,WSW,255,0.0,9.0,57,0.00,,---,0.00,454.00,VWS V14.00,2013-01-23 17:44:00,
2013-01-23 12:49:00,-1.6,-13.5,30.12,NW,316,8.0,10.0,56,0.00,,---,0.00,450.00,VWS V14.00,2013-01-23 17:49:00,
2013-01-23 12:54:00,-1.9,-13.8,30.12,NW,315,3.0,13.0,56,0.00,,---,0.00,448.00,VWS V14.00,2013-01-23 17:54:00,
2013-01-23 13:00:00,-1.6,-13.5,30.12,NW,313,10.0,13.0,56,0.00,,---,0.00,445.00,VWS V14.00,2013-01-23 18:00:00,
2013-01-23 13:05:00,-2.0,-13.8,30.12,WNW,292,3.0,13.0,56,0.00,,---,0.00,439.00,VWS V14.00,2013-01-23 18:05:00,
2013-01-23 13:10:00,-1.9,-13.8,30.12,NW,311,3.0,13.0,56,0.00,,---,0.00,438.00,VWS V14.00,2013-01-23 18:10:00,
2013-01-23 13:15:00,-2.0,-13.5,30.11,NW,311,0.0,13.0,57,0.00,,---,0.00,429.00,VWS V14.00,2013-01-23 18:15:00,
2013-01-23 13:20:00,-1.6,-13.1,30.11,WNW,296,0.0,4.0,57,0.00,,---,0.00,376.00,VWS V14.00,2013-01-23 18:20:00,
2013-01-23 13:25:00,-1.3,-12.8,30.11,NW,311,1.0,8.0,57,0.00,,---,0.00,325.00,VWS V14.00,2013-01-23 18:25:00,
2013-01-23 13:30:00,-1.0,-12.9,30.11,West,270,0.0,8.0,56,0.00,,---,0.00,40.00,VWS V14.00,2013-01-23 18:30:00,
2013-01-23 13:35:00,-0.5,-12.1,30.12,WSW,258,1.0,8.0,57,0.00,,---,0.00,69.00,VWS V14.00,2013-01-23 18:35:00,
2013-01-23 13:40:00,-0.1,-12.1,30.12,West,269,1.0,8.0,56,0.00,,---,0.00,114.00,VWS V14.00,2013-01-23 18:40:00,
2013-01-23 13:45:00,-0.3,-12.6,30.12,NNW,327,0.0,8.0,55,0.00,,---,0.00,385.00,VWS V14.00,2013-01-23 18:45:00,
2013-01-23 13:50:00,-0.8,-13.4,30.12,SW,236,2.0,7.0,54,0.00,,---,0.00,258.00,VWS V14.00,2013-01-23 18:50:00,
2013-01-23 13:55:00,-1.2,-13.1,30.12,SW,236,0.0,7.0,56,0.00,,---,0.00,387.00,VWS V14.00,2013-01-23 18:55:00,
2013-01-23 14:00:00,-0.5,-12.1,30.11,WSW,244,3.0,7.0,57,0.00,,---,0.00,380.00,VWS V14.00,2013-01-23 19:00:00,
2013-01-23 14:05:00,-0.5,-12.4,30.12,WNW,295,0.0,7.0,56,0.00,,---,0.00,338.00,VWS V14.00,2013-01-23 19:05:00,
2013-01-23 14:10:00,-0.5,-12.8,30.12,WNW,303,4.0,7.0,55,0.00,,---,0.00,367.00,VWS V14.00,2013-01-23 19:10:00,
2013-01-23 14:15:00,-0.3,-12.2,30.12,SSW,213,3.0,7.0,56,0.00,,---,0.00,357.00,VWS V14.00,2013-01-23 19:15:00,
2013-01-23 14:20:00,-0.3,-12.2,30.12,SW,216,1.0,3.0,56,0.00,,---,0.00,346.00,VWS V14.00,2013-01-23 19:20:00,
2013-01-23 14:26:00,-0.2,-12.1,30.12,NW,309,1.0,4.0,56,0.00,,---,0.00,338.00,VWS V14.00,2013-01-23 19:26:00,
2013-01-23 14:30:00,6.9,2.8,29.95,NW,306,1.0,9.0,83,0.00,,---,0.01,5.00,VWS V14.00,2013-01-23 19:30:00,
2013-01-23 14:31:00,-0.6,-12.5,30.12,WNW,296,1.0,4.0,56,0.00,,---,0.00,316.00,VWS V14.00,2013-01-23 19:31:00,
2013-01-23 14:36:00,-0.5,-12.4,30.12,SSW,207,1.0,7.0,56,0.00,,---,0.00,318.00,VWS V14.00,2013-01-23 19:36:00,
2013-01-23 14:41:00,-0.2,-12.1,30.12,NW,308,0.0,7.0,56,0.00,,---,0.00,283.00,VWS V14.00,2013-01-23 19:41:00,
2013-01-23 14:46:00,-0.1,-12.1,30.12,NW,317,3.0,7.0,56,0.00,,---,0.00,297.00,VWS V14.00,2013-01-23 19:46:00,
2013-01-23 14:51:00,-0.1,-12.1,30.12,WSW,255,1.0,5.0,56,0.00,,---,0.00,285.00,VWS V14.00,2013-01-23 19:51:00,
2013-01-23 14:56:00,-0.1,-12.3,30.12,West,271,0.0,6.0,55,0.00,,---,0.00,271.00,VWS V14.00,2013-01-23 19:56:00,
2013-01-23 15:00:00,6.0,0.6,30.00,WNW,301,0.0,12.0,78,0.00,,---,0.01,0.00,VWS V14.00,2013-01-23 20:00:00,
2013-01-23 15:01:00,-0.3,-12.6,30.12,NW,317,0.0,6.0,55,0.00,,---,0.00,257.00,VWS V14.00,2013-01-23 20:01:00,
2013-01-23 15:06:00,-0.1,-12.0,30.12,WNW,303,1.0,6.0,56,0.00,,---,0.00,243.00,VWS V14.00,2013-01-23 20:06:00,
2013-01-23 15:11:00,0.1,-12.0,30.13,WSW,239,1.0,6.0,56,0.00,,---,0.00,229.00,VWS V14.00,2013-01-23 20:11:00,
2013-01-23 15:16:00,0.1,-12.3,30.12,NW,304,1.0,5.0,55,0.00,,---,0.00,216.00,VWS V14.00,2013-01-23 20:16:00,
2013-01-23 15:21:00,-0.1,-12.1,30.13,NW,313,0.0,5.0,56,0.00,,---,0.00,192.00,VWS V14.00,2013-01-23 20:21:00,
2013-01-23 15:26:00,-0.2,-12.1,30.13,SSW,213,0.0,5.0,56,0.00,,---,0.00,69.00,VWS V14.00,2013-01-23 20:26:00,
2013-01-23 15:30:00,6.5,2.2,29.98,NW,305,2.0,8.0,82,0.00,,---,0.01,0.00,VWS V14.00,2013-01-23 20:30:00,
2013-01-23 15:31:00,-0.1,-12.1,30.13,SW,232,0.0,5.0,56,0.00,,---,0.00,28.00,VWS V14.00,2013-01-23 20:31:00,
2013-01-23 15:36:00,0.2,-11.8,30.13,SW,232,0.0,5.0,56,0.00,,---,0.00,26.00,VWS V14.00,2013-01-23 20:36:00,
2013-01-23 15:41:00,0.2,-11.8,30.13,SW,218,0.0,5.0,56,0.00,,---,0.00,26.00,VWS V14.00,2013-01-23 20:41:00,
2013-01-23 15:47:00,0.1,-11.9,30.13,SW,230,0.0,0.0,56,0.00,,---,0.00,25.00,VWS V14.00,2013-01-23 20:47:00,
2013-01-23 15:52:00,0.1,-12.0,30.13,SW,229,0.0,2.0,56,0.00,,---,0.00,25.00,VWS V14.00,2013-01-23 20:52:00,
2013-01-23 15:57:00,-0.1,-12.1,30.12,SW,229,0.0,2.0,56,0.00,,---,0.00,25.00,VWS V14.00,2013-01-23 20:57:00,
2013-01-23 16:00:00,6.0,0.6,30.00,WNW,301,0.0,12.0,78,0.00,,---,0.01,0.00,VWS V14.00,2013-01-23 21:00:00,
2013-01-23 16:02:00,-0.1,-12.1,30.12,NW,312,3.0,4.0,56,0.00,,---,0.00,62.00,VWS V14.00,2013-01-23 21:02:00,
2013-01-23 16:07:00,-0.5,-12.8,30.12,NW,313,0.0,4.0,55,0.00,,---,0.00,67.00,VWS V14.00,2013-01-23 21:07:00,
2013-01-23 16:12:00,-0.6,-12.5,30.12,WNW,301,0.0,4.0,56,0.00,,---,0.00,53.00,VWS V14.00,2013-01-23 21:12:00,
2013-01-23 16:17:00,-0.6,-12.2,30.12,WNW,301,0.0,1.0,57,0.00,,---,0.00,40.00,VWS V14.00,2013-01-23 21:17:00,
2013-01-23 16:22:00,-0.5,-12.1,30.13,WNW,301,0.0,1.0,57,0.00,,---,0.00,16.00,VWS V14.00,2013-01-23 21:22:00,
2013-01-23 16:27:00,-0.5,-12.1,30.12,WNW,301,0.0,1.0,57,0.00,,---,0.00,14.00,VWS V14.00,2013-01-23 21:27:00,
2013-01-23 16:30:00,5.0,-1.8,30.00,NW,310,4.0,10.0,73,0.00,,---,0.01,0.00,VWS V14.00,2013-01-23 21:30:00,
2013-01-23 16:32:00,-0.7,-12.3,30.12,WNW,301,0.0,1.0,57,0.00,,---,0.00,12.00,VWS V14.00,2013-01-23 21:32:00,
2013-01-23 16:38:00,-0.8,-12.4,30.12,WNW,301,0.0,1.0,57,0.00,,---,0.00,11.00,VWS V14.00,2013-01-23 21:38:00,
2013-01-23 16:43:00,-1.1,-12.6,30.12,WNW,301,0.0,1.0,57,0.00,,---,0.00,7.00,VWS V14.00,2013-01-23 21:43:00,
2013-01-23 16:48:00,-1.5,-13.0,30.12,WNW,301,0.0,0.0,57,0.00,,---,0.00,5.00,VWS V14.00,2013-01-23 21:48:00,
2013-01-23 16:53:00,-1.9,-13.1,30.13,WNW,301,0.0,0.0,58,0.00,,---,0.00,0.00,VWS V14.00,2013-01-23 21:53:00,
2013-01-23 16:58:00,-2.2,-13.0,30.13,WNW,301,0.0,0.0,59,0.00,,---,0.00,0.00,VWS V14.00,2013-01-23 21:58:00,
2013-01-23 17:00:00,3.9,-3.7,30.01,NW,313,1.0,8.0,70,0.00,,---,0.01,0.00,VWS V14.00,2013-01-23 22:00:00,
2013-01-23 17:03:00,-2.5,-13.3,30.13,WNW,301,0.0,0.0,59,0.00,,---,0.00,0.00,VWS V14.00,2013-01-23 22:03:00,
2013-01-23 17:08:00,-3.4,-13.8,30.13,WNW,301,0.0,0.0,60,0.00,,---,0.00,0.00,VWS V14.00,2013-01-23 22:08:00,
2013-01-23 17:13:00,-4.5,-14.2,30.13,WNW,301,0.0,0.0,62,0.00,,---,0.00,0.00,VWS V14.00,2013-01-23 22:13:00,
2013-01-23 17:18:00,-4.9,-13.9,30.13,WNW,301,0.0,0.0,64,0.00,,---,0.00,0.00,VWS V14.00,2013-01-23 22:18:00,
2013-01-23 17:23:00,-5.6,-14.6,30.13,WNW,301,0.0,0.0,64,0.00,,---,0.00,0.00,VWS V14.00,2013-01-23 22:23:00,
2013-01-23 17:28:00,-6.1,-14.8,30.14,WNW,301,0.0,0.0,65,0.00,,---,0.00,0.00,VWS V14.00,2013-01-23 22:28:00,
2013-01-23 17:30:00,2.9,-4.7,30.01,WNW,300,2.0,5.0,70,0.00,,---,0.01,0.00,VWS V14.00,2013-01-23 22:30:00,
2013-01-23 17:33:00,-6.2,-14.6,30.14,WNW,301,0.0,0.0,66,0.00,,---,0.00,0.00,VWS V14.00,2013-01-23 22:33:00,
2013-01-23 17:38:00,-6.6,-14.7,30.14,WNW,301,0.0,0.0,67,0.00,,---,0.00,0.00,VWS V14.00,2013-01-23 22:38:00,
2013-01-23 17:43:00,-7.1,-15.1,30.14,WNW,301,0.0,0.0,67,0.00,,---,0.00,0.00,VWS V14.00,2013-01-23 22:43:00,
2013-01-23 17:48:00,-7.2,-14.9,30.14,WNW,301,0.0,0.0,68,0.00,,---,0.00,0.00,VWS V14.00,2013-01-23 22:48:00,
2013-01-23 17:53:00,-7.4,-15.1,30.14,WNW,301,0.0,0.0,68,0.00,,---,0.00,0.00,VWS V14.00,2013-01-23 22:53:00,
2013-01-23 17:58:00,-7.8,-15.2,30.14,WNW,301,0.0,0.0,69,0.00,,---,0.00,0.00,VWS V14.00,2013-01-23 22:58:00,
2013-01-23 18:00:00,2.2,-4.7,30.01,WNW,300,0.0,2.0,72,0.00,,---,0.01,0.00,VWS V14.00,2013-01-23 23:00:00,
2013-01-23 18:03:00,-8.1,-15.5,30.15,WNW,301,0.0,0.0,69,0.00,,---,0.00,0.00,VWS V14.00,2013-01-23 23:03:00,
2013-01-23 18:09:00,-8.8,-16.2,30.15,WNW,301,0.0,0.0,69,0.00,,---,0.00,0.00,VWS V14.00,2013-01-23 23:09:00,
2013-01-23 18:14:00,-9.0,-16.1,30.15,WNW,301,0.0,0.0,70,0.00,,---,0.00,0.00,VWS V14.00,2013-01-23 23:14:00,
2013-01-23 18:19:00,-8.7,-15.3,30.15,WNW,301,0.0,0.0,72,0.00,,---,0.00,0.00,VWS V14.00,2013-01-23 23:19:00,
2013-01-23 18:24:00,-8.8,-15.4,30.15,WNW,301,0.0,0.0,72,0.00,,---,0.00,0.00,VWS V14.00,2013-01-23 23:24:00,
2013-01-23 18:29:00,-9.1,-15.7,30.15,WNW,301,0.0,0.0,72,0.00,,---,0.00,0.00,VWS V14.00,2013-01-23 23:29:00,
2013-01-23 18:30:00,1.1,-5.2,30.01,WNW,300,0.0,3.0,74,0.00,,---,0.01,0.00,VWS V14.00,2013-01-23 23:30:00,
2013-01-23 18:34:00,-9.5,-15.8,30.16,WNW,301,0.0,0.0,73,0.00,,---,0.00,0.00,VWS V14.00,2013-01-23 23:34:00,
2013-01-23 18:39:00,-9.8,-16.1,30.16,WNW,301,0.0,0.0,73,0.00,,---,0.00,0.00,VWS V14.00,2013-01-23 23:39:00,
2013-01-23 18:44:00,-10.4,-16.6,30.16,WNW,301,0.0,0.0,73,0.00,,---,0.00,0.00,VWS V14.00,2013-01-23 23:44:00,
2013-01-23 18:49:00,-10.7,-16.9,30.16,WNW,301,0.0,0.0,73,0.00,,---,0.00,0.00,VWS V14.00,2013-01-23 23:49:00,
2013-01-23 18:54:00,-11.0,-17.2,30.16,WNW,301,0.0,0.0,73,0.00,,---,0.00,0.00,VWS V14.00,2013-01-23 23:54:00,
2013-01-23 18:59:00,-11.5,-17.5,30.16,WNW,301,0.0,0.0,74,0.00,,---,0.00,0.00,VWS V14.00,2013-01-23 23:59:00,
2013-01-23 19:00:00,0.4,-5.6,30.01,WNW,300,0.0,0.0,75,0.00,,---,0.01,0.00,VWS V14.00,2013-01-24 00:00:00,
2013-01-23 19:04:00,-11.7,-17.6,30.16,WNW,301,0.0,0.0,74,0.00,,---,0.00,0.00,VWS V14.00,2013-01-24 00:04:00,
2013-01-23 19:09:00,-11.9,-17.8,30.16,WNW,301,0.0,0.0,74,0.00,,---,0.00,0.00,VWS V14.00,2013-01-24 00:09:00,
2013-01-23 19:14:00,-11.8,-17.5,30.16,WNW,301,0.0,0.0,75,0.00,,---,0.00,0.00,VWS V14.00,2013-01-24 00:14:00,
2013-01-23 19:19:00,-11.9,-17.6,30.16,WNW,301,0.0,0.0,75,0.00,,---,0.00,0.00,VWS V14.00,2013-01-24 00:19:00,
2013-01-23 19:24:00,-12.0,-17.7,30.16,WNW,301,0.0,0.0,75,0.00,,---,0.00,0.00,VWS V14.00,2013-01-24 00:24:00,
2013-01-23 19:29:00,-12.1,-17.8,30.16,WNW,301,0.0,0.0,75,0.00,,---,0.00,0.00,VWS V14.00,2013-01-24 00:29:00,
2013-01-23 19:30:00,0.4,-5.1,30.02,WNW,300,0.0,0.0,77,0.00,,---,0.01,0.00,VWS V14.00,2013-01-24 00:30:00,
2013-01-23 19:34:00,-12.1,-17.8,30.16,WNW,301,0.0,0.0,75,0.00,,---,0.00,0.00,VWS V14.00,2013-01-24 00:34:00,
2013-01-23 19:39:00,-12.2,-17.6,30.16,WNW,301,0.0,0.0,76,0.00,,---,0.00,0.00,VWS V14.00,2013-01-24 00:39:00,
2013-01-23 19:45:00,-12.3,-17.7,30.16,WNW,301,0.0,0.0,76,0.00,,---,0.00,0.00,VWS V14.00,2013-01-24 00:45:00,
2013-01-23 19:50:00,-12.5,-17.9,30.16,WNW,301,0.0,0.0,76,0.00,,---,0.00,0.00,VWS V14.00,2013-01-24 00:50:00,
2013-01-23 19:55:00,-12.7,-18.1,30.17,WNW,301,0.0,0.0,76,0.00,,---,0.00,0.00,VWS V14.00,2013-01-24 00:55:00,
2013-01-23 20:00:00,-13.0,-18.4,30.17,WNW,301,0.0,0.0,76,0.00,,---,0.00,0.00,VWS V14.00,2013-01-24 01:00:00,
2013-01-23 20:05:00,-13.4,-18.8,30.17,WNW,301,0.0,0.0,76,0.00,,---,0.00,0.00,VWS V14.00,2013-01-24 01:05:00,
2013-01-23 20:10:00,-13.5,-18.9,30.16,WNW,301,0.0,0.0,76,0.00,,---,0.00,0.00,VWS V14.00,2013-01-24 01:10:00,
2013-01-23 20:15:00,-13.4,-18.8,30.16,WNW,301,0.0,0.0,76,0.00,,---,0.00,0.00,VWS V14.00,2013-01-24 01:15:00,
2013-01-23 20:20:00,-13.4,-18.8,30.16,WNW,301,0.0,0.0,76,0.00,,---,0.00,0.00,VWS V14.00,2013-01-24 01:20:00,
2013-01-23 20:25:00,-13.6,-19.0,30.16,WNW,301,0.0,0.0,76,0.00,,---,0.00,0.00,VWS V14.00,2013-01-24 01:25:00,
2013-01-23 20:30:00,1.8,-3.5,30.03,NW,305,0.0,7.0,78,0.00,,---,0.01,0.00,VWS V14.00,2013-01-24 01:30:00,
2013-01-23 20:31:00,-13.6,-18.7,30.16,WNW,301,0.0,0.0,77,0.00,,---,0.00,0.00,VWS V14.00,2013-01-24 01:31:00,
2013-01-23 20:36:00,-13.6,-18.7,30.16,WNW,301,0.0,0.0,77,0.00,,---,0.00,0.00,VWS V14.00,2013-01-24 01:36:00,
2013-01-23 20:41:00,-13.5,-18.6,30.16,WNW,301,0.0,0.0,77,0.00,,---,0.00,0.00,VWS V14.00,2013-01-24 01:41:00,
2013-01-23 20:46:00,-13.7,-18.8,30.16,WNW,301,0.0,0.0,77,0.00,,---,0.00,0.00,VWS V14.00,2013-01-24 01:46:00,
2013-01-23 20:51:00,-13.6,-18.7,30.16,WNW,301,0.0,0.0,77,0.00,,---,0.00,0.00,VWS V14.00,2013-01-24 01:51:00,
2013-01-23 20:56:00,-13.9,-19.0,30.16,WNW,301,0.0,0.0,77,0.00,,---,0.00,0.00,VWS V14.00,2013-01-24 01:56:00,
2013-01-23 21:00:00,1.7,-3.3,30.04,West,273,1.0,8.0,79,0.00,,---,0.01,0.00,VWS V14.00,2013-01-24 02:00:00,
2013-01-23 21:01:00,-14.0,-19.1,30.16,WNW,301,0.0,0.0,77,0.00,,---,0.00,0.00,VWS V14.00,2013-01-24 02:01:00,
2013-01-23 21:06:00,-14.1,-19.2,30.16,WNW,301,0.0,0.0,77,0.00,,---,0.00,0.00,VWS V14.00,2013-01-24 02:06:00,
2013-01-23 21:11:00,-14.2,-19.3,30.16,WNW,301,0.0,0.0,77,0.00,,---,0.00,0.00,VWS V14.00,2013-01-24 02:11:00,
2013-01-23 21:16:00,-14.6,-19.7,30.16,WNW,301,0.0,0.0,77,0.00,,---,0.00,0.00,VWS V14.00,2013-01-24 02:16:00,
2013-01-23 21:21:00,-14.8,-19.9,30.16,WNW,301,0.0,0.0,77,0.00,,---,0.00,0.00,VWS V14.00,2013-01-24 02:21:00,
2013-01-23 21:26:00,-14.8,-19.9,30.16,WNW,301,0.0,0.0,77,0.00,,---,0.00,0.00,VWS V14.00,2013-01-24 02:26:00,
2013-01-23 21:30:00,1.9,-3.9,30.04,WNW,296,3.0,11.0,76,0.00,,---,0.01,0.00,VWS V14.00,2013-01-24 02:30:00,
2013-01-23 21:31:00,-15.2,-20.3,30.16,WNW,301,0.0,0.0,77,0.00,,---,0.00,0.00,VWS V14.00,2013-01-24 02:31:00,
2013-01-23 21:36:00,-15.4,-20.5,30.16,WNW,301,0.0,0.0,77,0.00,,---,0.00,0.00,VWS V14.00,2013-01-24 02:36:00,
2013-01-23 21:41:00,-15.3,-20.4,30.16,WNW,301,0.0,0.0,77,0.00,,---,0.00,0.00,VWS V14.00,2013-01-24 02:41:00,
2013-01-23 21:46:00,-15.3,-20.4,30.16,WNW,301,0.0,0.0,77,0.00,,---,0.00,0.00,VWS V14.00,2013-01-24 02:46:00,
2013-01-23 21:51:00,-15.3,-20.1,30.16,WNW,301,0.0,0.0,78,0.00,,---,0.00,0.00,VWS V14.00,2013-01-24 02:51:00,
2013-01-23 21:56:00,-15.4,-20.2,30.16,WNW,301,0.0,0.0,78,0.00,,---,0.00,0.00,VWS V14.00,2013-01-24 02:56:00,
2013-01-23 22:00:00,1.7,-4.7,30.02,WNW,291,1.0,11.0,74,0.00,,---,0.01,0.00,VWS V14.00,2013-01-24 03:00:00,
2013-01-23 22:01:00,-15.4,-20.5,30.16,WNW,301,0.0,0.0,77,0.00,,---,0.00,0.00,VWS V14.00,2013-01-24 03:01:00,
2013-01-23 22:07:00,-15.4,-20.2,30.16,WNW,301,0.0,0.0,78,0.00,,---,0.00,0.00,VWS V14.00,2013-01-24 03:07:00,
2013-01-23 22:12:00,-15.4,-20.2,30.16,WNW,301,0.0,0.0,78,0.00,,---,0.00,0.00,VWS V14.00,2013-01-24 03:12:00,
2013-01-23 22:17:00,-15.3,-20.1,30.16,WNW,301,0.0,0.0,78,0.00,,---,0.00,0.00,VWS V14.00,2013-01-24 03:17:00,
2013-01-23 22:22:00,-15.3,-20.1,30.16,WNW,301,0.0,0.0,78,0.00,,---,0.00,0.00,VWS V14.00,2013-01-24 03:22:00,
2013-01-23 22:27:00,-15.3,-20.1,30.16,WNW,301,0.0,0.0,78,0.00,,---,0.00,0.00,VWS V14.00,2013-01-24 03:27:00,
2013-01-23 22:30:00,1.4,-7.0,30.02,WSW,242,4.0,14.0,67,0.00,,---,0.01,0.00,VWS V14.00,2013-01-24 03:30:00,
2013-01-23 22:32:00,-15.4,-20.2,30.16,WNW,301,0.0,0.0,78,0.00,,---,0.00,0.00,VWS V14.00,2013-01-24 03:32:00,
2013-01-23 22:37:00,-15.4,-20.2,30.16,WNW,301,0.0,0.0,78,0.00,,---,0.00,0.00,VWS V14.00,2013-01-24 03:37:00,
2013-01-23 22:42:00,-15.3,-20.1,30.16,WNW,301,0.0,0.0,78,0.00,,---,0.00,0.00,VWS V14.00,2013-01-24 03:42:00,
2013-01-23 22:47:00,-15.4,-20.2,30.16,WNW,301,0.0,0.0,78,0.00,,---,0.00,0.00,VWS V14.00,2013-01-24 03:47:00,
2013-01-23 22:52:00,-15.5,-20.3,30.16,WNW,301,0.0,0.0,78,0.00,,---,0.00,0.00,VWS V14.00,2013-01-24 03:52:00,
2013-01-23 22:57:00,-15.7,-20.5,30.16,WNW,301,0.0,0.0,78,0.00,,---,0.00,0.00,VWS V14.00,2013-01-24 03:57:00,
2013-01-23 23:00:00,0.7,-6.8,30.03,NNW,333,9.0,15.0,70,0.00,,---,0.01,0.00,VWS V14.00,2013-01-24 04:00:00,
2013-01-23 23:03:00,-16.0,-21.1,30.16,WNW,301,0.0,0.0,77,0.00,,---,0.00,0.00,VWS V14.00,2013-01-24 04:03:00,
2013-01-23 23:08:00,-16.2,-21.0,30.16,WNW,301,0.0,0.0,78,0.00,,---,0.00,0.00,VWS V14.00,2013-01-24 04:08:00,
2013-01-23 23:13:00,-16.3,-21.1,30.16,WNW,301,0.0,0.0,78,0.00,,---,0.00,0.00,VWS V14.00,2013-01-24 04:13:00,
2013-01-23 23:18:00,-16.6,-21.6,30.16,WNW,301,0.0,0.0,77,0.00,,---,0.00,0.00,VWS V14.00,2013-01-24 04:18:00,
2013-01-23 23:23:00,-16.6,-21.6,30.16,WNW,301,0.0,0.0,77,0.00,,---,0.00,0.00,VWS V14.00,2013-01-24 04:23:00,
2013-01-23 23:28:00,-16.6,-21.6,30.16,WNW,301,0.0,0.0,77,0.00,,---,0.00,0.00,VWS V14.00,2013-01-24 04:28:00,
2013-01-23 23:30:00,-1.1,-6.6,30.04,NW,314,3.0,13.0,77,0.00,,---,0.01,0.00,VWS V14.00,2013-01-24 04:30:00,
2013-01-23 23:33:00,-16.7,-21.5,30.16,WNW,301,0.0,0.0,78,0.00,,---,0.00,0.00,VWS V14.00,2013-01-24 04:33:00,
2013-01-23 23:38:00,-16.7,-21.5,30.17,WNW,301,0.0,0.0,78,0.00,,---,0.00,0.00,VWS V14.00,2013-01-24 04:38:00,
2013-01-23 23:43:00,-16.5,-21.3,30.17,WNW,301,0.0,0.0,78,0.00,,---,0.00,0.00,VWS V14.00,2013-01-24 04:43:00,
2013-01-23 23:48:00,-16.6,-21.4,30.17,WNW,301,0.0,0.0,78,0.00,,---,0.00,0.00,VWS V14.00,2013-01-24 04:48:00,
2013-01-23 23:53:00,-16.9,-21.7,30.17,WNW,301,0.0,0.0,78,0.00,,---,0.00,0.00,VWS V14.00,2013-01-24 04:53:00,
2013-01-23 23:58:00,-16.9,-21.7,30.16,WNW,301,1.0,1.0,78,0.00,,---,0.00,0.00,VWS V14.00,2013-01-24 04:58:00,